Time,TemperatureF,DewpointF,PressureIn,WindDirection,WindDirectionDegrees,WindSpeedMPH,WindSpeedGustMPH,Humidity,HourlyPrecipIn,Conditions,Clouds,dailyrainin,SoftwareType,DateUTC
2013-04-06 00:02:00,35.0,33.0,-100.00,East,100,4.0,9.0,91,0.00,,,-99.99,,2013-04-06 05:02:00,
2013-04-06 00:13:00,35.0,33.0,-100.00,East,100,4.0,9.0,91,0.00,,,-99.99,,2013-04-06 05:13:00,
2013-04-06 00:22:00,35.0,33.0,-100.00,ESE,105,4.0,9.0,91,0.00,,,-99.99,,2013-04-06 05:22:00,
2013-04-06 00:32:00,35.0,32.0,-100.00,ESE,105,5.0,9.0,91,0.00,,,-99.99,,2013-04-06 05:32:00,
2013-04-06 00:42:00,35.0,32.0,-100.00,ESE,105,5.0,9.0,91,0.00,,,-99.99,,2013-04-06 05:42:00,
2013-04-06 00:52:00,35.0,33.0,-100.00,ESE,110,6.0,9.0,91,0.00,,,-99.99,,2013-04-06 05:52:00,
2013-04-06 01:02:00,35.0,33.0,-100.00,East,100,4.0,9.0,91,0.00,,,-99.99,,2013-04-06 06:02:00,
2013-04-06 01:12:00,35.0,33.0,-100.00,East,100,4.0,9.0,91,0.00,,,-99.99,,2013-04-06 06:12:00,
2013-04-06 01:22:00,35.0,33.0,-100.00,ESE,105,6.0,9.0,91,0.00,,,-99.99,,2013-04-06 06:22:00,
2013-04-06 01:32:00,35.0,33.0,-100.00,ESE,105,5.0,9.0,91,0.00,,,-99.99,,2013-04-06 06:32:00,
2013-04-06 01:42:00,35.0,33.0,-100.00,ESE,105,5.0,9.0,91,0.00,,,-99.99,,2013-04-06 06:42:00,
2013-04-06 01:52:00,35.0,33.0,-100.00,ESE,105,4.0,9.0,91,0.00,,,-99.99,,2013-04-06 06:52:00,
2013-04-06 02:03:00,35.0,33.0,-100.00,ESE,105,4.0,9.0,92,0.00,,,-99.99,,2013-04-06 07:03:00,
2013-04-06 02:12:00,35.0,33.0,-100.00,ESE,105,4.0,9.0,92,0.00,,,-99.99,,2013-04-06 07:12:00,
2013-04-06 02:22:00,34.0,32.0,-100.00,East,85,4.0,7.0,92,0.00,,,-99.99,,2013-04-06 07:22:00,
2013-04-06 02:33:00,34.0,32.0,-100.00,East,100,4.0,7.0,92,0.00,,,-99.99,,2013-04-06 07:33:00,
2013-04-06 02:43:00,34.0,32.0,-100.00,East,100,4.0,7.0,92,0.00,,,-99.99,,2013-04-06 07:43:00,
2013-04-06 02:52:00,34.0,32.0,-100.00,East,85,2.0,7.0,92,0.00,,,-99.99,,2013-04-06 07:52:00,
2013-04-06 03:02:00,33.0,32.0,-100.00,ENE,65,2.0,7.0,92,0.00,,,-99.99,,2013-04-06 08:02:00,
2013-04-06 03:13:00,33.0,32.0,-100.00,ENE,65,2.0,7.0,92,0.00,,,-99.99,,2013-04-06 08:13:00,
2013-04-06 03:22:00,33.0,31.0,-100.00,East,90,0.0,3.0,93,0.00,,,-99.99,,2013-04-06 08:22:00,
2013-04-06 03:32:00,32.0,31.0,-100.00,East,90,0.0,0.0,93,0.00,,,-99.99,,2013-04-06 08:32:00,
2013-04-06 03:42:00,32.0,31.0,-100.00,East,90,0.0,0.0,93,0.00,,,-99.99,,2013-04-06 08:42:00,
2013-04-06 03:52:00,32.0,30.0,-100.00,NNE,20,1.0,3.0,94,0.00,,,-99.99,,2013-04-06 08:52:00,
2013-04-06 04:02:00,32.0,31.0,-100.00,NE,35,1.0,3.0,94,0.00,,,-99.99,,2013-04-06 09:02:00,
2013-04-06 04:12:00,32.0,31.0,-100.00,NE,35,1.0,3.0,94,0.00,,,-99.99,,2013-04-06 09:12:00,
2013-04-06 04:22:00,32.0,31.0,-100.00,North,0,2.0,3.0,94,0.00,,,-99.99,,2013-04-06 09:22:00,
2013-04-06 04:32:00,32.0,31.0,-100.00,North,10,1.0,3.0,95,0.00,,,-99.99,,2013-04-06 09:32:00,
2013-04-06 04:43:00,32.0,31.0,-100.00,North,10,1.0,3.0,95,0.00,,,-99.99,,2013-04-06 09:43:00,
2013-04-06 04:53:00,33.0,31.0,-100.00,North,5,1.0,4.0,95,0.00,,,-99.99,,2013-04-06 09:53:00,
2013-04-06 05:03:00,33.0,32.0,-100.00,NNE,25,2.0,4.0,96,0.00,,,-99.99,,2013-04-06 10:03:00,
2013-04-06 05:13:00,33.0,32.0,-100.00,NNE,25,2.0,4.0,96,0.00,,,-99.99,,2013-04-06 10:13:00,
2013-04-06 05:23:00,33.0,32.0,-100.00,NE,40,1.0,4.0,96,0.00,,,-99.99,,2013-04-06 10:23:00,
2013-04-06 05:33:00,33.0,32.0,-100.00,NE,35,0.0,2.0,96,0.00,,,-99.99,,2013-04-06 10:33:00,
2013-04-06 05:42:00,33.0,32.0,-100.00,NE,35,0.0,2.0,96,0.00,,,-99.99,,2013-04-06 10:42:00,
2013-04-06 05:52:00,33.0,32.0,-100.00,NNE,30,1.0,4.0,96,0.04,,,-99.99,,2013-04-06 10:52:00,
2013-04-06 06:02:00,33.0,32.0,-100.00,NE,45,1.0,6.0,96,0.01,,,-99.99,,2013-04-06 11:02:00,
2013-04-06 06:12:00,33.0,32.0,-100.00,NE,45,1.0,6.0,96,0.01,,,-99.99,,2013-04-06 11:12:00,
2013-04-06 06:23:00,33.0,33.0,-100.00,NE,35,1.0,2.0,96,0.08,,,-99.99,,2013-04-06 11:23:00,
2013-04-06 06:33:00,33.0,33.0,-100.00,NNE,25,2.0,4.0,97,0.01,,,-99.99,,2013-04-06 11:33:00,
2013-04-06 06:43:00,33.0,33.0,-100.00,NNE,25,2.0,4.0,97,0.01,,,-99.99,,2013-04-06 11:43:00,
2013-04-06 06:52:00,33.0,33.0,-100.00,NE,40,1.0,2.0,97,0.03,,,-99.99,,2013-04-06 11:52:00,
2013-04-06 07:02:00,33.0,33.0,-100.00,NE,40,1.0,4.0,98,0.01,,,-99.99,,2013-04-06 12:02:00,
2013-04-06 07:12:00,33.0,33.0,-100.00,NE,40,1.0,4.0,98,0.01,,,-99.99,,2013-04-06 12:12:00,
2013-04-06 07:22:00,33.0,33.0,-100.00,NE,35,1.0,3.0,98,0.00,,,-99.99,,2013-04-06 12:22:00,
2013-04-06 07:32:00,33.0,33.0,-100.00,NNE,20,1.0,2.0,98,0.00,,,-99.99,,2013-04-06 12:32:00,
2013-04-06 07:43:00,33.0,33.0,-100.00,NNE,20,1.0,2.0,98,0.00,,,-99.99,,2013-04-06 12:43:00,
2013-04-06 07:52:00,33.0,33.0,-100.00,North,0,1.0,3.0,98,0.00,,,-99.99,,2013-04-06 12:52:00,
2013-04-06 08:03:00,33.0,33.0,-100.00,North,5,1.0,2.0,98,0.01,,,-99.99,,2013-04-06 13:03:00,
2013-04-06 08:13:00,33.0,33.0,-100.00,North,5,1.0,2.0,98,0.01,,,-99.99,,2013-04-06 13:13:00,
2013-04-06 08:23:00,33.0,33.0,-100.00,NNE,20,2.0,3.0,99,0.00,,,-99.99,,2013-04-06 13:23:00,
2013-04-06 08:32:00,33.0,33.0,-100.00,North,0,2.0,5.0,99,0.00,,,-99.99,,2013-04-06 13:32:00,
2013-04-06 08:43:00,33.0,33.0,-100.00,North,0,2.0,5.0,99,0.00,,,-99.99,,2013-04-06 13:43:00,
2013-04-06 08:52:00,34.0,34.0,-100.00,North,350,1.0,3.0,99,0.00,,,-99.99,,2013-04-06 13:52:00,
2013-04-06 09:04:00,34.0,34.0,-100.00,North,0,3.0,5.0,99,0.00,,,-99.99,,2013-04-06 14:04:00,
2013-04-06 09:12:00,34.0,34.0,-100.00,North,0,3.0,5.0,99,0.00,,,-99.99,,2013-04-06 14:12:00,
2013-04-06 09:22:00,34.0,34.0,-100.00,NNW,345,3.0,-999.0,99,0.00,,,-99.99,,2013-04-06 14:22:00,
2013-04-06 09:32:00,34.0,34.0,-100.00,North,355,3.0,6.0,99,0.00,,,-99.99,,2013-04-06 14:32:00,
2013-04-06 09:42:00,34.0,34.0,-100.00,North,355,3.0,6.0,99,0.00,,,-99.99,,2013-04-06 14:42:00,
2013-04-06 09:52:00,34.0,34.0,-100.00,North,5,2.0,6.0,99,0.00,,,-99.99,,2013-04-06 14:52:00,
2013-04-06 10:02:00,35.0,35.0,-100.00,North,350,2.0,5.0,99,0.00,,,-99.99,,2013-04-06 15:02:00,
2013-04-06 10:12:00,35.0,35.0,-100.00,North,350,2.0,5.0,99,0.00,,,-99.99,,2013-04-06 15:12:00,
2013-04-06 10:23:00,35.0,35.0,-100.00,NNW,340,4.0,7.0,99,0.00,,,-99.99,,2013-04-06 15:23:00,
2013-04-06 10:33:00,35.0,35.0,-100.00,NNW,345,3.0,9.0,99,0.00,,,-99.99,,2013-04-06 15:33:00,
2013-04-06 10:43:00,35.0,35.0,-100.00,NNW,345,3.0,9.0,99,0.00,,,-99.99,,2013-04-06 15:43:00,
2013-04-06 10:52:00,35.0,35.0,-100.00,North,0,4.0,7.0,99,0.00,,,-99.99,,2013-04-06 15:52:00,
2013-04-06 11:05:00,36.0,36.0,-100.00,North,5,4.0,7.0,99,0.00,,,-99.99,,2013-04-06 16:05:00,
2013-04-06 11:17:00,36.0,36.0,-100.00,North,5,4.0,7.0,99,0.00,,,-99.99,,2013-04-06 16:17:00,
2013-04-06 11:23:00,36.0,36.0,-100.00,North,5,2.0,9.0,99,0.00,,,-99.99,,2013-04-06 16:23:00,
2013-04-06 11:32:00,37.0,37.0,-100.00,North,5,4.0,7.0,99,0.00,,,-99.99,,2013-04-06 16:32:00,
2013-04-06 11:42:00,37.0,37.0,-100.00,North,5,4.0,7.0,99,0.00,,,-99.99,,2013-04-06 16:42:00,
2013-04-06 11:52:00,37.0,37.0,-100.00,North,0,2.0,9.0,99,0.00,,,-99.99,,2013-04-06 16:52:00,
2013-04-06 12:02:00,37.0,37.0,-100.00,North,5,4.0,7.0,99,0.00,,,-99.99,,2013-04-06 17:02:00,
2013-04-06 12:12:00,37.0,37.0,-100.00,North,5,4.0,7.0,99,0.00,,,-99.99,,2013-04-06 17:12:00,
2013-04-06 12:22:00,37.0,37.0,-100.00,NNW,330,2.0,8.0,99,0.00,,,-99.99,,2013-04-06 17:22:00,
2013-04-06 12:32:00,39.0,39.0,-100.00,NE,45,2.0,7.0,99,0.00,,,-99.99,,2013-04-06 17:32:00,
2013-04-06 12:42:00,39.0,39.0,-100.00,NE,45,2.0,7.0,99,0.00,,,-99.99,,2013-04-06 17:42:00,
2013-04-06 12:52:00,38.0,38.0,-100.00,NW,320,5.0,8.0,99,0.00,,,-99.99,,2013-04-06 17:52:00,
2013-04-06 13:03:00,39.0,38.0,-100.00,NW,325,6.0,7.0,99,0.00,,,-99.99,,2013-04-06 18:03:00,
2013-04-06 13:12:00,39.0,38.0,-100.00,NW,325,6.0,7.0,99,0.00,,,-99.99,,2013-04-06 18:12:00,
2013-04-06 13:23:00,40.0,39.0,-100.00,NNW,330,6.0,9.0,96,0.00,,,-99.99,,2013-04-06 18:23:00,
2013-04-06 13:32:00,40.0,38.0,-100.00,NW,325,6.0,9.0,94,0.00,,,-99.99,,2013-04-06 18:32:00,
2013-04-06 13:42:00,40.0,38.0,-100.00,NW,325,6.0,9.0,94,0.00,,,-99.99,,2013-04-06 18:42:00,
2013-04-06 13:52:00,38.0,36.0,-100.00,NW,315,4.0,9.0,92,0.00,,,-99.99,,2013-04-06 18:52:00,
2013-04-06 14:03:00,38.0,36.0,-100.00,NW,315,6.0,9.0,92,0.00,,,-99.99,,2013-04-06 19:03:00,
2013-04-06 14:12:00,38.0,36.0,-100.00,NW,315,6.0,9.0,92,0.00,,,-99.99,,2013-04-06 19:12:00,
2013-04-06 14:23:00,37.0,36.0,-100.00,NNW,335,3.0,9.0,94,0.00,,,-99.99,,2013-04-06 19:23:00,
2013-04-06 14:32:00,37.0,36.0,-100.00,NW,325,4.0,9.0,94,0.00,,,-99.99,,2013-04-06 19:32:00,
2013-04-06 14:42:00,37.0,36.0,-100.00,NW,325,4.0,9.0,94,0.00,,,-99.99,,2013-04-06 19:42:00,
2013-04-06 14:53:00,37.0,36.0,-100.00,North,0,5.0,9.0,94,0.00,,,-99.99,,2013-04-06 19:53:00,
2013-04-06 15:03:00,37.0,36.0,-100.00,NNW,335,3.0,9.0,94,0.00,,,-99.99,,2013-04-06 20:03:00,
2013-04-06 15:12:00,37.0,36.0,-100.00,NNW,335,3.0,9.0,94,0.00,,,-99.99,,2013-04-06 20:12:00,
2013-04-06 15:22:00,37.0,36.0,-100.00,North,350,4.0,9.0,94,0.00,,,-99.99,,2013-04-06 20:22:00,
2013-04-06 15:32:00,37.0,36.0,-100.00,NW,325,4.0,9.0,94,0.00,,,-99.99,,2013-04-06 20:32:00,
2013-04-06 15:42:00,37.0,36.0,-100.00,NW,325,4.0,9.0,94,0.00,,,-99.99,,2013-04-06 20:42:00,
2013-04-06 15:52:00,37.0,35.0,-100.00,NW,320,3.0,9.0,93,0.00,,,-99.99,,2013-04-06 20:52:00,
2013-04-06 16:02:00,37.0,35.0,-100.00,North,350,4.0,19.0,93,0.00,,,-99.99,,2013-04-06 21:02:00,
2013-04-06 16:13:00,37.0,35.0,-100.00,North,350,4.0,19.0,93,0.00,,,-99.99,,2013-04-06 21:13:00,
2013-04-06 16:22:00,37.0,35.0,-100.00,NNW,345,6.0,19.0,92,0.00,,,-99.99,,2013-04-06 21:22:00,
2013-04-06 16:33:00,37.0,35.0,-100.00,NW,325,4.0,19.0,92,0.00,,,-99.99,,2013-04-06 21:33:00,
2013-04-06 16:43:00,37.0,35.0,-100.00,NW,325,4.0,19.0,92,0.00,,,-99.99,,2013-04-06 21:43:00,
2013-04-06 16:52:00,36.0,35.0,-100.00,NNW,330,4.0,9.0,92,0.00,,,-99.99,,2013-04-06 21:52:00,
2013-04-06 17:03:00,36.0,35.0,-100.00,North,0,4.0,9.0,92,0.00,,,-99.99,,2013-04-06 22:03:00,
2013-04-06 17:13:00,36.0,35.0,-100.00,North,0,4.0,9.0,92,0.00,,,-99.99,,2013-04-06 22:13:00,
2013-04-06 17:23:00,36.0,35.0,-100.00,NNW,340,6.0,9.0,92,0.00,,,-99.99,,2013-04-06 22:23:00,
2013-04-06 17:34:00,36.0,34.0,-100.00,NNW,330,4.0,19.0,92,0.00,,,-99.99,,2013-04-06 22:34:00,
2013-04-06 17:43:00,36.0,34.0,-100.00,NNW,330,4.0,19.0,92,0.00,,,-99.99,,2013-04-06 22:43:00,
2013-04-06 17:53:00,36.0,34.0,-100.00,NNW,330,5.0,9.0,92,0.00,,,-99.99,,2013-04-06 22:53:00,
2013-04-06 18:03:00,36.0,34.0,-100.00,NNW,335,6.0,9.0,92,0.00,,,-99.99,,2013-04-06 23:03:00,
2013-04-06 18:13:00,36.0,34.0,-100.00,NNW,335,6.0,9.0,92,0.00,,,-99.99,,2013-04-06 23:13:00,
2013-04-06 18:23:00,36.0,34.0,-100.00,NNW,335,5.0,9.0,93,0.00,,,-99.99,,2013-04-06 23:23:00,
2013-04-06 18:34:00,36.0,34.0,-100.00,NNW,335,5.0,9.0,94,0.00,,,-99.99,,2013-04-06 23:34:00,
2013-04-06 18:42:00,36.0,34.0,-100.00,NNW,335,5.0,9.0,94,0.00,,,-99.99,,2013-04-06 23:42:00,
2013-04-06 18:52:00,35.0,34.0,-100.00,NW,320,6.0,9.0,94,0.00,,,-99.99,,2013-04-06 23:52:00,
2013-04-06 19:02:00,35.0,34.0,-100.00,NNW,330,3.0,9.0,95,0.00,,,-99.99,,2013-04-07 00:02:00,
2013-04-06 19:13:00,35.0,34.0,-100.00,NNW,330,3.0,9.0,95,0.00,,,-99.99,,2013-04-07 00:13:00,
2013-04-06 19:22:00,35.0,34.0,-100.00,NNW,335,4.0,9.0,96,0.00,,,-99.99,,2013-04-07 00:22:00,
2013-04-06 19:32:00,35.0,34.0,-100.00,NW,325,4.0,9.0,96,0.00,,,-99.99,,2013-04-07 00:32:00,
2013-04-06 19:43:00,35.0,34.0,-100.00,NW,325,4.0,9.0,96,0.00,,,-99.99,,2013-04-07 00:43:00,
2013-04-06 20:02:00,34.0,34.0,-100.00,NW,320,4.0,9.0,96,0.00,,,-99.99,,2013-04-07 01:02:00,
2013-04-06 20:12:00,34.0,34.0,-100.00,NW,320,4.0,9.0,96,0.00,,,-99.99,,2013-04-07 01:12:00,
2013-04-06 20:23:00,34.0,33.0,-100.00,NNW,330,5.0,9.0,96,0.00,,,-99.99,,2013-04-07 01:23:00,
2013-04-06 20:32:00,34.0,33.0,-100.00,NW,325,6.0,9.0,96,0.00,,,-99.99,,2013-04-07 01:32:00,
2013-04-06 20:43:00,34.0,33.0,-100.00,NW,325,6.0,9.0,96,0.00,,,-99.99,,2013-04-07 01:43:00,
2013-04-06 20:52:00,34.0,33.0,-100.00,NNW,330,5.0,9.0,96,0.00,,,-99.99,,2013-04-07 01:52:00,
2013-04-06 21:03:00,34.0,33.0,-100.00,NNW,340,6.0,9.0,96,0.00,,,-99.99,,2013-04-07 02:03:00,
2013-04-06 21:12:00,34.0,33.0,-100.00,NNW,340,6.0,9.0,96,0.00,,,-99.99,,2013-04-07 02:12:00,
2013-04-06 21:23:00,34.0,33.0,-100.00,NNW,340,6.0,9.0,97,0.00,,,-99.99,,2013-04-07 02:23:00,
2013-04-06 21:32:00,34.0,33.0,-100.00,NW,325,6.0,9.0,97,0.00,,,-99.99,,2013-04-07 02:32:00,
2013-04-06 21:43:00,34.0,33.0,-100.00,NW,325,6.0,9.0,97,0.00,,,-99.99,,2013-04-07 02:43:00,
2013-04-06 21:52:00,34.0,33.0,-100.00,NNW,340,6.0,9.0,97,0.00,,,-99.99,,2013-04-07 02:52:00,
2013-04-06 22:02:00,33.0,33.0,-100.00,NNW,330,5.0,9.0,97,0.00,,,-99.99,,2013-04-07 03:02:00,
2013-04-06 22:12:00,33.0,33.0,-100.00,NNW,330,5.0,9.0,97,0.00,,,-99.99,,2013-04-07 03:12:00,
2013-04-06 22:22:00,33.0,33.0,-100.00,NW,325,4.0,9.0,98,0.00,,,-99.99,,2013-04-07 03:22:00,
2013-04-06 22:34:00,33.0,33.0,-100.00,NNW,335,7.0,9.0,98,0.00,,,-99.99,,2013-04-07 03:34:00,
2013-04-06 22:43:00,33.0,33.0,-100.00,NNW,335,7.0,9.0,98,0.00,,,-99.99,,2013-04-07 03:43:00,
2013-04-06 22:53:00,33.0,33.0,-100.00,NNW,335,6.0,9.0,98,0.00,,,-99.99,,2013-04-07 03:53:00,
2013-04-06 23:03:00,33.0,33.0,-100.00,NW,320,6.0,9.0,98,0.00,,,-99.99,,2013-04-07 04:03:00,
2013-04-06 23:14:00,33.0,33.0,-100.00,NW,320,6.0,9.0,98,0.00,,,-99.99,,2013-04-07 04:14:00,
2013-04-06 23:23:00,33.0,33.0,-100.00,NW,320,7.0,9.0,98,0.00,,,-99.99,,2013-04-07 04:23:00,
2013-04-06 23:32:00,33.0,33.0,-100.00,NW,325,6.0,9.0,98,0.00,,,-99.99,,2013-04-07 04:32:00,
2013-04-06 23:43:00,33.0,33.0,-100.00,NW,325,6.0,9.0,98,0.00,,,-99.99,,2013-04-07 04:43:00,
2013-04-06 23:52:00,33.0,33.0,-100.00,NNW,340,5.0,9.0,98,0.00,,,-99.99,,2013-04-07 04:52:00,